STARLINK-11126

decayed
NORAD ID: 59951 Int'l Des: 2024-107 Owner: SPXS Country: US Constellation: starlink
LEOCIRCULAR

关于 STARLINK-11126

正在加载描述...

高度历史

Altitude vs Time

uPlot chart will show altitude changes over time

两行轨道根数

1 59951U 24107G 25110.90627451 .04339931 12050-4 91491-3 0 9997
2 59951 53.1317 20.3657 0008552 235.5455 213.6012 16.30035905 51792
Epoch: Apr 20, 2025 • Age: 3622 hours

当前状态

Position data unavailable
发射日期 Jun 5, 2024
运行时间 1.2 years
衰减日期 Apr 21, 2025
类型 internet

技术详情

分类 Payload
质量 960.00 kg
干质量 910.00 kg
总质量 960.00 kg
长度 0.30 m
直径 4.10 m
跨度 29.00 m
形状 Box + pan
制造商 SPXS
平台类型 Starlink V2MD
阶段状态 Unknown Transfer Status
所有者/国家 SPXS/US

大型星座

Loading constellations...